Regional Weather Roundup
Issued by NWS

Home | Current Version | Previous Version | Text Only | Print | Product List | Glossary On
Versions: 1 2 3 4 5 6 7 8 9 10 11 12 13 14 15 16 17 18 19 20 21 22 23 24 25 26 27 28 29 30 31 32 33 34 35 36 37 38 39 40 41 42 43 44 45 46 47 48 49 50
000
ASUS45 KABQ 261010
RWRNM
WEATHER ROUNDUP FOR NEW MEXICO
NATIONAL WEATHER SERVICE ALBUQUERQUE NM
400 AM MDT SUN APR 26 2015

NOTE: "FAIR" MEANS FEW OR NO CLOUDS BELOW 12,000 FEET AGL WITH NO
       SIGNIFICANT WEATHER OR OBSTRUCTIONS TO VISION.

      THIS PRODUCT IS RELEASED AS TWO VERSIONS.  ONE VERSION NEAR
      THE TOP OF THE HOUR CONTAINING PRELIMINARY DATA FROM ALBUQUERQUE
      AND OTHER STATIONS.  A FINAL VERSION WITH ADDITIONAL DATA IS
      ISSUED ABOUT 10 MINUTES AFTER THE HOUR.

NMZ501-503-504-510>518-261100-
NORTHWEST PLATEAU/NORTHCENTRAL MOUNTAINS

CITY           SKY/WX    TMP DP  RH WIND       PRES   REMARKS
FARMINGTON     CLOUDY    41  39  93 SE3       29.75F
LOS ALAMOS     CLOUDY    45  30  57 W9        29.81F
SANTA FE       CLOUDY    47  29  49 N8        29.77F
TAOS           CLOUDY    41  25  52 NW3       29.82S
ANGEL FIRE     FAIR      28  24  88 NE6       29.86R WCI  21

$$
NMZ402-403-502-505>509-261100-
WESTCENTRAL MOUNTAINS/SOUTHWEST MOUNTAINS

CITY           SKY/WX    TMP DP  RH WIND       PRES   REMARKS
GALLUP         CLOUDY    38  35  89 S6        29.79F WCI  33
GRANTS         CLOUDY    39  37  92 CALM      29.81F
SILVER CITY    CLOUDY    54  30  40 W17G25    29.82F

$$
NMZ407-409-411-412-261100-
SOUTHERN DESERTS

CITY           SKY/WX    TMP DP  RH WIND       PRES   REMARKS
LORDSBURG      FAIR      59  27  29 W15       29.78S
DEMING         MOCLDY    58  27  30 W14       29.78F
LAS CRUCES     PTCLDY    56  22  26 SW10      29.79F
HOLLOMAN AFB   CLOUDY    58  25  28 S7        29.76S
ALAMOGORDO     CLOUDY    59  23  25 S13       29.78S
T OR C         MOCLDY    56  25  30 S7        29.73F

$$
NMZ519>523-261100-
CENTRAL VALLEYS/CENTRAL HIGHLANDS

CITY           SKY/WX    TMP DP  RH WIND       PRES   REMARKS
ALBUQUERQUE    LGT RAIN  56  32  40 S3        29.77S
DOUBLE EAGLE   DRIZZLE   49  36  62 W5        29.77S
MORIARTY ARPT  PTSUNNY   43  24  46 CALM      29.80S
CLINES CORNERS CLOUDY    42  26  53 W6        29.79F
BELEN          CLOUDY    52  35  51 N3        29.76S
SOCORRO        FAIR      51  26  37 S7        29.73S

$$
NMZ524>526-539-540-261100-
SOUTHCENTRAL MOUNTAINS

CITY           SKY/WX    TMP DP  RH WIND       PRES   REMARKS
RUIDOSO        CLOUDY    50  19  29 W6        29.84S

$$
NMZ527>531-261100-
NORTHEAST HIGHLANDS/NORTHEAST PLAINS

CITY           SKY/WX    TMP DP  RH WIND       PRES   REMARKS
LAS VEGAS      MOCLDY    38  23  55 SW8       29.79S WCI  32
RATON          PTCLDY    35  26  69 N7        29.75F WCI  29
CLAYTON        CLEAR     47  28  47 NW10      29.72R

$$
NMZ532>537-261100-
EASTCENTRAL PLAINS

CITY           SKY/WX    TMP DP  RH WIND       PRES   REMARKS
TUCUMCARI      PTCLDY    50  26  39 W7        29.67S
CANNON AFB     PTCLDY    56  23  27 W10       29.72F
CLOVIS AIRPORT PTCLDY    50  25  37 W8        29.72S

$$
NMZ028-029-538-261100-
SOUTHEAST PLAINS

CITY           SKY/WX    TMP DP  RH WIND       PRES   REMARKS
ROSWELL        MOCLDY    50  29  44 SW8       29.72S
ARTESIA        PTCLDY    57  27  30 E10       29.74R
CARLSBAD       CLEAR     52  25  35 SE7       29.72S
HOBBS          CLEAR     48  27  43 CALM      29.75S


$$


USA.gov is the U.S. government's official web portal to all federal, state and local government web resources and services.